Nogales, AZ

5:36 PM MST on February 25, 2017 (GMT -0700)
Nogales International

Weather History for KOLS - April, 2013

Change the Weather History Date:

Thursday, April 11, 2013

  Actual Average (KFHU) Record (KFHU)
Temperature  
Mean Temperature 56 °F -  
Max Temperature 75 °F 71 °F 87 °F (1989)
Min Temperature 37 °F 49 °F 33 °F (2001)
Degree Days  
Heating Degree Days 9    
Growing Degree Days 6 (Base 50)    
Moisture  
Dew Point 20 °F    
Average Humidity 28    
Maximum Humidity 57    
Minimum Humidity 8    
Precipitation  
Precipitation 0.00 in - - ()
Sea Level Pressure  
Sea Level Pressure 29.84 in    
Wind  
Wind Speed 4 mph (NNW)    
Max Wind Speed 9 mph    
Max Gust Speed -    
Visibility 10 miles    
Events      
Averages and records for this station are not official NWS values.
T = Trace of Precipitation, MM = Missing Value Source: NWS Daily Summary

Daily Weather History Graph

Daily Weather History Graph

Search for Another Location

Airport or City:

Trip Planner

Search our weather history database for the weather conditions in past years. The results will help you decide how hot, cold, wet, or windy it might be!

Date:

Astronomy

Apr. 11, 2013 Rise Set
Actual Time 5:59 AM MST 6:49 PM MST
Civil Twilight 5:34 AM MST 7:14 PM MST
Nautical Twilight 5:05 AM MST 7:43 PM MST
Astronomical Twilight 4:35 AM MST 8:13 PM MST
Moon 6:38 AM MST (4/11) 8:20 PM MST (4/11)
Length of Visible Light 13h 39m
Length of Day
12h 50m
New Moon, 2% of the Moon is Illuminated
Apr 11
New Moon
Apr 18
First Quarter
Apr 25
Full
May 2
Last Quarter
May 9
New

Hourly Weather History & Observations

Time (MST) Temp. Windchill Dew Point Humidity Pressure Visibility Wind Dir Wind Speed Gust Speed Precip Events Conditions
12:54 AM 45.0 °F 42.6 °F 25.0 °F 46% 29.93 in 10.0 mi North 4.6 mph - N/A   Clear
1:54 AM 41.0 °F 36.4 °F 24.1 °F 51% 29.94 in 10.0 mi SSE 6.9 mph - N/A   Clear
2:54 AM 42.1 °F - 24.1 °F 49% 29.91 in 10.0 mi Calm Calm - N/A   Clear
3:54 AM 39.0 °F 35.7 °F 24.1 °F 55% 29.92 in 10.0 mi East 4.6 mph - N/A   Clear
4:54 AM 37.9 °F 35.5 °F 24.1 °F 57% 29.91 in 10.0 mi NE 3.5 mph - N/A   Clear
5:54 AM 37.9 °F 34.4 °F 24.1 °F 57% 29.92 in 10.0 mi SSE 4.6 mph - N/A   Clear
6:54 AM 44.1 °F 41.5 °F 25.0 °F 47% 29.92 in 10.0 mi NE 4.6 mph - N/A   Clear
7:54 AM 48.9 °F - 25.0 °F 39% 29.93 in 10.0 mi Calm Calm - N/A   Clear
8:54 AM 55.0 °F - 25.0 °F 31% 29.92 in 10.0 mi Calm Calm - N/A   Clear
9:54 AM 60.8 °F - 21.2 °F 22% 30.01 in 10.0 mi Calm Calm - N/A   Clear
10:54 AM 66.0 °F - 19.9 °F 17% 29.88 in 10.0 mi SW 6.9 mph - N/A   Clear
11:54 AM 69.1 °F - 19.9 °F 15% 29.85 in 10.0 mi WNW 9.2 mph - N/A   Clear
12:54 PM 73.0 °F - 19.0 °F 13% 29.82 in 10.0 mi West 9.2 mph - N/A   Clear
1:54 PM 75.9 °F - 18.0 °F 11% 29.79 in 10.0 mi SSW 5.8 mph - N/A   Clear
2:54 PM 75.9 °F - 18.0 °F 11% 29.75 in 10.0 mi North - - N/A   Clear
3:54 PM 75.9 °F - 9.0 °F 8% 29.73 in 10.0 mi North 8.1 mph - N/A   Clear
4:54 PM 75.9 °F - 16.0 °F 10% 29.72 in 10.0 mi West 6.9 mph - N/A   Clear
5:54 PM 75.0 °F - 18.0 °F 12% 29.72 in 10.0 mi NW 9.2 mph - N/A   Clear
6:54 PM 69.1 °F - 18.0 °F 14% 29.72 in 10.0 mi NNW 6.9 mph - N/A   Clear
7:54 PM 64.9 °F - 18.0 °F 16% 29.74 in 10.0 mi NW 5.8 mph - N/A   Clear
8:54 PM 59.0 °F - 18.0 °F 20% 29.76 in 10.0 mi Calm Calm - N/A   Clear
9:54 PM 55.9 °F - 18.0 °F 23% 29.76 in 10.0 mi Calm Calm - N/A   Clear
10:54 PM 54.0 °F - 19.0 °F 25% 29.75 in 10.0 mi East 5.8 mph - N/A   Clear
11:54 PM 53.1 °F - 19.0 °F 26% 29.75 in 10.0 mi ENE 4.6 mph - N/A   Clear